Time,TemperatureF,DewpointF,PressureIn,WindDirection,WindDirectionDegrees,WindSpeedMPH,WindSpeedGustMPH,Humidity,HourlyPrecipIn,Conditions,Clouds,dailyrainin,SoftwareType,DateUTC
2013-03-03 00:03:00,53.8,48.0,30.05,NNE,19,4.0,5.0,80,0.04,,,0.04,weatherlink.com 1.10,2013-03-03 05:03:00,
2013-03-03 00:18:00,53.3,48.0,30.05,NNE,19,0.0,5.0,81,0.03,,,0.00,weatherlink.com 1.10,2013-03-03 05:18:00,
2013-03-03 00:34:00,53.0,48.0,30.05,NNE,19,3.0,5.0,83,0.02,,,0.01,weatherlink.com 1.10,2013-03-03 05:34:00,
2013-03-03 00:49:00,52.7,48.0,30.05,NNE,19,2.0,4.0,84,0.01,,,0.01,weatherlink.com 1.10,2013-03-03 05:49:00,
2013-03-03 01:04:00,52.4,48.0,30.05,NNE,19,2.0,4.0,84,0.01,,,0.01,weatherlink.com 1.10,2013-03-03 06:04:00,
2013-03-03 01:19:00,52.4,48.0,30.04,NNE,19,5.0,6.0,85,0.02,,,0.02,weatherlink.com 1.10,2013-03-03 06:19:00,
2013-03-03 01:34:00,52.2,48.0,30.04,NNE,19,0.0,2.0,86,0.01,,,0.02,weatherlink.com 1.10,2013-03-03 06:34:00,
2013-03-03 01:49:00,52.3,48.0,30.04,NNE,19,0.0,1.0,86,0.02,,,0.03,weatherlink.com 1.10,2013-03-03 06:49:00,
2013-03-03 02:04:00,52.3,49.0,30.04,NNE,19,0.0,0.0,87,0.03,,,0.04,weatherlink.com 1.10,2013-03-03 07:04:00,
2013-03-03 02:19:00,52.1,48.0,30.03,NNE,19,0.0,0.0,87,0.03,,,0.05,weatherlink.com 1.10,2013-03-03 07:19:00,
2013-03-03 02:34:00,51.9,48.0,30.03,NNE,19,0.0,3.0,87,0.03,,,0.05,weatherlink.com 1.10,2013-03-03 07:34:00,
2013-03-03 02:49:00,51.9,49.0,30.00,NNE,19,3.0,5.0,88,0.02,,,0.05,weatherlink.com 1.10,2013-03-03 07:49:00,
2013-03-03 03:04:00,51.9,49.0,30.01,NNE,19,3.0,4.0,88,0.01,,,0.05,weatherlink.com 1.10,2013-03-03 08:04:00,
2013-03-03 03:19:00,51.8,48.0,30.01,NNE,19,0.0,4.0,88,0.00,,,0.05,weatherlink.com 1.10,2013-03-03 08:19:00,
2013-03-03 03:34:00,51.7,48.0,30.01,NNE,19,2.0,3.0,88,0.00,,,0.05,weatherlink.com 1.10,2013-03-03 08:34:00,
2013-03-03 03:49:00,51.7,48.0,30.00,NNE,19,3.0,5.0,88,0.01,,,0.06,weatherlink.com 1.10,2013-03-03 08:49:00,
2013-03-03 04:04:00,51.7,49.0,30.00,NNE,19,2.0,3.0,89,0.01,,,0.06,weatherlink.com 1.10,2013-03-03 09:04:00,
2013-03-03 04:19:00,51.5,48.0,30.00,NNE,19,2.0,4.0,89,0.02,,,0.07,weatherlink.com 1.10,2013-03-03 09:19:00,
2013-03-03 04:34:00,51.5,48.0,30.00,NNE,19,2.0,4.0,89,0.03,,,0.08,weatherlink.com 1.10,2013-03-03 09:34:00,
2013-03-03 04:49:00,51.3,48.0,30.01,NNE,19,3.0,6.0,89,0.02,,,0.08,weatherlink.com 1.10,2013-03-03 09:49:00,
2013-03-03 05:04:00,51.2,48.0,30.01,NNE,19,3.0,7.0,89,0.02,,,0.08,weatherlink.com 1.10,2013-03-03 10:04:00,
2013-03-03 05:19:00,51.2,48.0,30.01,NNE,19,2.0,5.0,89,0.02,,,0.09,weatherlink.com 1.10,2013-03-03 10:19:00,
2013-03-03 05:34:00,51.0,48.0,30.01,NNE,19,4.0,6.0,89,0.01,,,0.09,weatherlink.com 1.10,2013-03-03 10:34:00,
2013-03-03 05:49:00,50.8,48.0,30.01,ENE,63,7.0,8.0,90,0.01,,,0.09,weatherlink.com 1.10,2013-03-03 10:49:00,
2013-03-03 06:04:00,50.7,48.0,30.02,ENE,61,4.0,6.0,90,0.01,,,0.09,weatherlink.com 1.10,2013-03-03 11:04:00,
2013-03-03 06:19:00,50.6,48.0,30.02,ENE,61,4.0,6.0,90,0.00,,,0.09,weatherlink.com 1.10,2013-03-03 11:19:00,
2013-03-03 06:34:00,50.7,48.0,30.02,ENE,59,4.0,7.0,90,0.00,,,0.09,weatherlink.com 1.10,2013-03-03 11:34:00,
2013-03-03 06:49:00,50.7,48.0,30.03,NNE,29,3.0,8.0,90,0.01,,,0.10,weatherlink.com 1.10,2013-03-03 11:49:00,
2013-03-03 07:04:00,50.9,48.0,30.03,NNE,25,3.0,8.0,91,0.02,,,0.11,weatherlink.com 1.10,2013-03-03 12:04:00,
2013-03-03 07:19:00,51.0,49.0,30.04,NNE,25,4.0,6.0,91,0.02,,,0.11,weatherlink.com 1.10,2013-03-03 12:19:00,
2013-03-03 07:34:00,50.9,48.0,30.05,NNE,25,4.0,6.0,90,0.02,,,0.11,weatherlink.com 1.10,2013-03-03 12:34:00,
2013-03-03 07:49:00,51.0,49.0,30.05,NNE,22,4.0,8.0,91,0.02,,,0.12,weatherlink.com 1.10,2013-03-03 12:49:00,
2013-03-03 08:04:00,51.4,49.0,30.05,NNE,22,5.0,9.0,91,0.01,,,0.12,weatherlink.com 1.10,2013-03-03 13:04:00,
2013-03-03 08:19:00,51.4,49.0,30.06,NNE,29,7.0,17.0,90,0.01,,,0.12,weatherlink.com 1.10,2013-03-03 13:19:00,
2013-03-03 08:34:00,48.7,45.0,30.08,NNE,29,11.0,22.0,87,0.01,,,0.12,weatherlink.com 1.10,2013-03-03 13:34:00,
2013-03-03 08:49:00,46.4,43.0,30.09,NNE,24,10.0,16.0,87,0.00,,,0.12,weatherlink.com 1.10,2013-03-03 13:49:00,
2013-03-03 09:04:00,46.3,43.0,30.10,North,3,5.0,13.0,88,0.00,,,0.12,weatherlink.com 1.10,2013-03-03 14:04:00,
2013-03-03 09:19:00,46.5,43.0,30.11,NNE,21,8.0,12.0,88,0.00,,,0.12,weatherlink.com 1.10,2013-03-03 14:19:00,
2013-03-03 09:34:00,46.7,43.0,30.11,NNE,24,8.0,12.0,88,0.00,,,0.12,weatherlink.com 1.10,2013-03-03 14:34:00,
2013-03-03 09:49:00,47.1,44.0,30.10,NNE,16,9.0,15.0,87,0.00,,,0.12,weatherlink.com 1.10,2013-03-03 14:49:00,
2013-03-03 10:05:00,48.5,45.0,30.10,NNE,14,9.0,13.0,86,0.00,,,0.12,weatherlink.com 1.10,2013-03-03 15:05:00,
2013-03-03 10:20:00,49.7,45.0,30.08,ENE,58,7.0,11.0,85,0.00,,,0.12,weatherlink.com 1.10,2013-03-03 15:20:00,
2013-03-03 10:35:00,51.9,48.0,30.09,NNE,22,4.0,9.0,85,0.00,,,0.12,weatherlink.com 1.10,2013-03-03 15:35:00,
2013-03-03 10:50:00,53.5,49.0,30.10,NNE,33,0.0,7.0,83,0.00,,,0.12,weatherlink.com 1.10,2013-03-03 15:50:00,
2013-03-03 11:05:00,55.4,49.0,30.10,NE,37,3.0,9.0,78,0.00,,,0.12,weatherlink.com 1.10,2013-03-03 16:05:00,
2013-03-03 11:20:00,56.3,48.0,30.10,North,349,6.0,11.0,73,0.00,,,0.12,weatherlink.com 1.10,2013-03-03 16:20:00,
2013-03-03 11:35:00,57.8,48.0,30.09,NW,317,3.0,16.0,69,0.00,,,0.12,weatherlink.com 1.10,2013-03-03 16:35:00,
2013-03-03 11:50:00,57.8,47.0,30.08,NNW,346,8.0,15.0,67,0.00,,,0.12,weatherlink.com 1.10,2013-03-03 16:50:00,
2013-03-03 12:05:00,57.4,45.0,30.07,North,356,4.0,19.0,64,0.00,,,0.12,weatherlink.com 1.10,2013-03-03 17:05:00,
2013-03-03 12:20:00,57.3,45.0,30.07,NNW,337,9.0,17.0,63,0.00,,,0.12,weatherlink.com 1.10,2013-03-03 17:20:00,
2013-03-03 12:35:00,57.5,45.0,30.07,WNW,283,16.0,21.0,63,0.00,,,0.12,weatherlink.com 1.10,2013-03-03 17:35:00,
2013-03-03 12:50:00,57.4,45.0,30.07,NW,306,9.0,21.0,63,0.00,,,0.12,weatherlink.com 1.10,2013-03-03 17:50:00,
2013-03-03 13:05:00,58.0,46.0,30.07,North,357,11.0,22.0,64,0.00,,,0.12,weatherlink.com 1.10,2013-03-03 18:05:00,
2013-03-03 13:20:00,58.8,46.0,30.07,NW,310,7.0,18.0,62,0.00,,,0.12,weatherlink.com 1.10,2013-03-03 18:20:00,
2013-03-03 13:35:00,58.5,46.0,30.07,WNW,289,9.0,19.0,64,0.00,,,0.12,weatherlink.com 1.10,2013-03-03 18:35:00,
2013-03-03 13:50:00,58.3,46.0,30.06,North,353,11.0,25.0,65,0.00,,,0.12,weatherlink.com 1.10,2013-03-03 18:50:00,
2013-03-03 14:05:00,58.1,46.0,30.06,NNE,20,9.0,22.0,64,0.00,,,0.12,weatherlink.com 1.10,2013-03-03 19:05:00,
2013-03-03 14:20:00,58.1,47.0,30.06,West,274,10.0,22.0,66,0.00,,,0.12,weatherlink.com 1.10,2013-03-03 19:20:00,
2013-03-03 14:35:00,57.8,46.0,30.06,WSW,256,16.0,24.0,65,0.00,,,0.12,weatherlink.com 1.10,2013-03-03 19:35:00,
2013-03-03 14:50:00,57.9,46.0,30.07,NW,312,13.0,25.0,65,0.00,,,0.12,weatherlink.com 1.10,2013-03-03 19:50:00,
2013-03-03 15:05:00,57.7,47.0,30.06,WNW,295,21.0,23.0,67,0.00,,,0.12,weatherlink.com 1.10,2013-03-03 20:05:00,
2013-03-03 15:20:00,58.0,47.0,30.06,West,261,20.0,23.0,67,0.00,,,0.12,weatherlink.com 1.10,2013-03-03 20:20:00,
2013-03-03 15:35:00,57.5,47.0,30.07,WNW,290,8.0,25.0,68,0.00,,,0.12,weatherlink.com 1.10,2013-03-03 20:35:00,
2013-03-03 15:50:00,57.3,48.0,30.07,NW,312,13.0,16.0,71,0.00,,,0.12,weatherlink.com 1.10,2013-03-03 20:50:00,
2013-03-03 16:05:00,57.2,50.0,30.07,WNW,285,11.0,13.0,76,0.00,,,0.12,weatherlink.com 1.10,2013-03-03 21:05:00,
2013-03-03 16:20:00,57.9,49.0,30.07,West,277,17.0,18.0,72,0.00,,,0.12,weatherlink.com 1.10,2013-03-03 21:20:00,
2013-03-03 16:35:00,57.1,48.0,30.07,NW,306,5.0,18.0,72,0.00,,,0.12,weatherlink.com 1.10,2013-03-03 21:35:00,
2013-03-03 16:50:00,56.7,49.0,30.08,West,273,16.0,19.0,74,0.00,,,0.12,weatherlink.com 1.10,2013-03-03 21:50:00,
2013-03-03 17:05:00,56.7,49.0,30.08,WNW,293,9.0,18.0,74,0.00,,,0.12,weatherlink.com 1.10,2013-03-03 22:05:00,
2013-03-03 17:20:00,56.7,49.0,30.08,WNW,291,11.0,22.0,76,0.00,,,0.12,weatherlink.com 1.10,2013-03-03 22:20:00,
2013-03-03 17:35:00,57.6,50.0,30.08,North,353,2.0,18.0,76,0.00,,,0.12,weatherlink.com 1.10,2013-03-03 22:35:00,
2013-03-03 17:50:00,57.8,50.0,30.09,WNW,293,8.0,16.0,75,0.00,,,0.12,weatherlink.com 1.10,2013-03-03 22:50:00,
2013-03-03 18:05:00,57.7,50.0,30.09,WNW,295,16.0,21.0,75,0.00,,,0.12,weatherlink.com 1.10,2013-03-03 23:05:00,
2013-03-03 18:20:00,57.3,50.0,30.09,NW,321,4.0,17.0,76,0.00,,,0.12,weatherlink.com 1.10,2013-03-03 23:20:00,
2013-03-03 18:35:00,57.5,50.0,30.09,NW,314,6.0,13.0,76,0.00,,,0.12,weatherlink.com 1.10,2013-03-03 23:35:00,
2013-03-03 18:50:00,57.8,50.0,30.09,NW,312,1.0,12.0,76,0.00,,,0.12,weatherlink.com 1.10,2013-03-03 23:50:00,
2013-03-03 19:05:00,57.9,48.0,30.10,WNW,295,13.0,24.0,70,0.00,,,0.12,weatherlink.com 1.10,2013-03-04 00:05:00,
2013-03-03 19:20:00,58.7,48.0,30.10,NW,316,19.0,24.0,67,0.00,,,0.12,weatherlink.com 1.10,2013-03-04 00:20:00,
2013-03-03 19:35:00,58.9,47.0,30.10,WNW,283,8.0,18.0,66,0.00,,,0.12,weatherlink.com 1.10,2013-03-04 00:35:00,
2013-03-03 19:50:00,59.3,47.0,30.11,WNW,284,14.0,26.0,65,0.00,,,0.12,weatherlink.com 1.10,2013-03-04 00:50:00,
2013-03-03 20:05:00,59.4,48.0,30.12,WNW,291,12.0,23.0,67,0.00,,,0.12,weatherlink.com 1.10,2013-03-04 01:05:00,
2013-03-03 20:20:00,59.0,49.0,30.12,NNW,330,11.0,17.0,69,0.00,,,0.12,weatherlink.com 1.10,2013-03-04 01:20:00,
2013-03-03 20:35:00,59.0,48.0,30.13,NW,318,19.0,26.0,67,0.00,,,0.12,weatherlink.com 1.10,2013-03-04 01:35:00,
2013-03-03 20:50:00,59.3,49.0,30.14,NW,320,11.0,19.0,68,0.00,,,0.12,weatherlink.com 1.10,2013-03-04 01:50:00,
2013-03-03 21:05:00,59.1,49.0,30.15,NW,316,6.0,16.0,69,0.00,,,0.12,weatherlink.com 1.10,2013-03-04 02:05:00,
2013-03-03 21:20:00,58.9,49.0,30.16,NNW,344,4.0,21.0,69,0.00,,,0.12,weatherlink.com 1.10,2013-03-04 02:20:00,
2013-03-03 21:35:00,58.8,48.0,30.15,WNW,290,12.0,21.0,68,0.00,,,0.12,weatherlink.com 1.10,2013-03-04 02:35:00,
2013-03-03 21:50:00,58.7,48.0,30.16,WNW,289,9.0,19.0,68,0.00,,,0.12,weatherlink.com 1.10,2013-03-04 02:50:00,
2013-03-03 22:05:00,58.6,48.0,30.16,NW,312,6.0,18.0,67,0.00,,,0.12,weatherlink.com 1.10,2013-03-04 03:05:00,
2013-03-03 22:20:00,58.4,48.0,30.16,NNW,343,12.0,16.0,68,0.00,,,0.12,weatherlink.com 1.10,2013-03-04 03:20:00,
2013-03-03 22:35:00,58.2,47.0,30.16,NNW,343,7.0,16.0,67,0.00,,,0.12,weatherlink.com 1.10,2013-03-04 03:35:00,
2013-03-03 22:50:00,58.0,47.0,30.17,WNW,289,16.0,17.0,67,0.00,,,0.12,weatherlink.com 1.10,2013-03-04 03:50:00,
2013-03-03 23:05:00,57.8,46.0,30.17,North,4,8.0,20.0,66,0.00,,,0.12,weatherlink.com 1.10,2013-03-04 04:05:00,
2013-03-03 23:20:00,57.7,46.0,30.16,NNW,328,12.0,22.0,66,0.00,,,0.12,weatherlink.com 1.10,2013-03-04 04:20:00,
2013-03-03 23:35:00,57.4,45.0,30.17,NNW,347,13.0,17.0,64,0.00,,,0.12,weatherlink.com 1.10,2013-03-04 04:35:00,
2013-03-03 23:50:00,57.2,44.0,30.17,NNW,333,4.0,14.0,62,0.00,,,0.12,weatherlink.com 1.10,2013-03-04 04:50:00,